When you browse on this site, cookies collect data to enhance your experience and personalize the content and advertising you see.
Visit our Privacy Policy to learn more. By continuing to use the site, you agree to this use of cookies and data.
  • In Portugal
  • List of Countries
  • For 7 days
  • Water Temperature
  • Weather Map
  • Weather Widgets
  • user-avatar
    Login

    Hourly Weather Jaroszowka

    Today, 29 May, Friday

    Time Temperature Precipitation Wind Pressure Humidity
    00:00 +10°C° 0 mm 4 mps 752 mmHg 84%
    01:00 +9°C° 0 mm 5 mps 752 mmHg 82%
    02:00 +8°C° 0 mm 5 mps 752 mmHg 76%
    03:00 +7°C° 0 mm 5 mps 752 mmHg 78%
    04:00 +6°C° 0 mm 5 mps 752 mmHg 81%
    05:00 +6°C° 0 mm 5 mps 752 mmHg 83%
    06:00 +7°C° 0 mm 5 mps 752 mmHg 80%
    07:00 +8°C° 0 mm 5 mps 752 mmHg 77%
    08:00 +9°C° 0 mm 6 mps 752 mmHg 75%
    09:00 +11°C° 0 mm 6 mps 752 mmHg 70%
    10:00 +13°C° 0 mm 6 mps 752 mmHg 66%
    11:00 +15°C° 0 mm 7 mps 752 mmHg 62%
    12:00 +15°C° 0.1 mm 7 mps 752 mmHg 61%
    13:00 +16°C° 0.1 mm 7 mps 751 mmHg 59%
    14:00 +16°C° 0.1 mm 7 mps 751 mmHg 57%
    15:00 +16°C° 0.1 mm 6 mps 751 mmHg 59%
    16:00 +15°C° 0.1 mm 6 mps 751 mmHg 60%
    17:00 +15°C° 0.1 mm 6 mps 750 mmHg 62%
    18:00 +14°C° 0 mm 5 mps 750 mmHg 67%
    19:00 +13°C° 0 mm 5 mps 750 mmHg 71%
    20:00 +12°C° 0 mm 5 mps 750 mmHg 75%
    21:00 +10°C° 0 mm 5 mps 750 mmHg 77%
    22:00 +10°C° 0 mm 5 mps 750 mmHg 78%
    23:00 +9°C° 0 mm 5 mps 750 mmHg 80%

    Tomorrow, 30 May, Saturday

    Time Temperature Precipitation Wind Pressure Humidity
    00:00 +8°C° 0 mm 5 mps 750 mmHg 81%
    01:00 +8°C° 0 mm 5 mps 750 mmHg 81%
    02:00 +7°C° 0 mm 5 mps 749 mmHg 81%
    03:00 +7°C° 0.4 mm 5 mps 749 mmHg 84%
    04:00 +7°C° 0.4 mm 5 mps 749 mmHg 86%
    05:00 +7°C° 0.4 mm 5 mps 749 mmHg 88%
    06:00 +7°C° 0.1 mm 6 mps 748 mmHg 87%
    07:00 +7°C° 0.1 mm 6 mps 748 mmHg 86%
    08:00 +8°C° 0.1 mm 6 mps 748 mmHg 84%
    09:00 +9°C° 0 mm 6 mps 748 mmHg 78%
    10:00 +11°C° 0 mm 7 mps 747 mmHg 71%
    11:00 +13°C° 0 mm 8 mps 747 mmHg 64%
    12:00 +13°C° 0.2 mm 8 mps 747 mmHg 66%
    13:00 +13°C° 0.2 mm 8 mps 747 mmHg 67%
    14:00 +15°C° 0.2 mm 8 mps 746 mmHg 69%
    15:00 +14°C° 1 mm 7 mps 746 mmHg 73%
    16:00 +14°C° 1 mm 6 mps 745 mmHg 78%
    17:00 +13°C° 1 mm 6 mps 745 mmHg 82%
    18:00 +13°C° 0.2 mm 6 mps 745 mmHg 81%
    19:00 +12°C° 0.2 mm 7 mps 744 mmHg 80%
    20:00 +12°C° 0.2 mm 7 mps 744 mmHg 79%
    21:00 +12°C° 2 mm 8 mps 744 mmHg 84%
    22:00 +11°C° 2 mm 8 mps 743 mmHg 88%
    23:00 +10°C° 2 mm 9 mps 743 mmHg 93%

    Day after tomorrow, 31 May, Sunday

    Time Temperature Precipitation Wind Pressure Humidity
    00:00 +10°C° 0.4 mm 8 mps 743 mmHg 90%
    01:00 +11°C° 0.4 mm 8 mps 742 mmHg 88%
    02:00 +11°C° 0.4 mm 8 mps 742 mmHg 85%
    03:00 +12°C° 0 mm 8 mps 742 mmHg 81%
    04:00 +12°C° 0 mm 8 mps 742 mmHg 78%
    05:00 +12°C° 0 mm 8 mps 742 mmHg 74%
    06:00 +13°C° 0 mm 8 mps 743 mmHg 74%
    07:00 +13°C° 0 mm 9 mps 743 mmHg 73%
    08:00 +13°C° 0 mm 9 mps 744 mmHg 73%
    09:00 +15°C° 0 mm 9 mps 744 mmHg 72%
    10:00 +15°C° 0 mm 8 mps 745 mmHg 72%
    11:00 +16°C° 0 mm 8 mps 745 mmHg 71%
    12:00 +16°C° 0 mm 8 mps 746 mmHg 70%
    13:00 +16°C° 0 mm 7 mps 746 mmHg 70%
    14:00 +17°C° 0 mm 7 mps 746 mmHg 70%
    15:00 +17°C° 0 mm 7 mps 747 mmHg 70%
    16:00 +17°C° 0 mm 6 mps 747 mmHg 69%
    17:00 +17°C° 0 mm 6 mps 747 mmHg 69%
    18:00 +16°C° 0 mm 5 mps 748 mmHg 70%
    19:00 +16°C° 0 mm 5 mps 748 mmHg 71%
    20:00 +15°C° 0 mm 5 mps 748 mmHg 72%
    21:00 +14°C° 0 mm 5 mps 749 mmHg 71%
    22:00 +13°C° 0 mm 5 mps 749 mmHg 71%
    23:00 +13°C° 0 mm 5 mps 750 mmHg 70%

    1 June, Monday

    Time Temperature Precipitation Wind Pressure Humidity
    00:00 +12°C° 0 mm 5 mps 750 mmHg 72%
    01:00 +12°C° 0 mm 5 mps 750 mmHg 73%
    02:00 +10°C° 0 mm 5 mps 751 mmHg 75%
    03:00 +10°C° 0 mm 5 mps 751 mmHg 75%
    04:00 +9°C° 0 mm 5 mps 751 mmHg 76%
    05:00 +8°C° 0 mm 4 mps 752 mmHg 76%
    06:00 +9°C° 0 mm 5 mps 752 mmHg 74%
    07:00 +10°C° 0 mm 5 mps 752 mmHg 71%
    08:00 +12°C° 0 mm 5 mps 752 mmHg 69%
    09:00 +14°C° 0 mm 5 mps 753 mmHg 65%
    10:00 +15°C° 0 mm 5 mps 753 mmHg 62%
    11:00 +16°C° 0 mm 5 mps 753 mmHg 58%
    12:00 +16°C° 0 mm 5 mps 753 mmHg 55%
    13:00 +17°C° 0 mm 5 mps 753 mmHg 52%
    14:00 +17°C° 0 mm 6 mps 753 mmHg 49%
    15:00 +17°C° 0 mm 5 mps 753 mmHg 52%
    16:00 +17°C° 0 mm 5 mps 753 mmHg 55%
    17:00 +16°C° 0 mm 5 mps 753 mmHg 58%
    18:00 +15°C° 0 mm 4 mps 752 mmHg 64%
    19:00 +14°C° 0 mm 3 mps 752 mmHg 70%
    20:00 +13°C° 0 mm 3 mps 752 mmHg 76%
    21:00 +12°C° 0 mm 3 mps 752 mmHg 79%
    22:00 +12°C° 0 mm 2 mps 753 mmHg 83%
    23:00 +10°C° 0 mm 2 mps 753 mmHg 86%

    2 June, Tuesday

    Time Temperature Precipitation Wind Pressure Humidity
    00:00 +9°C° 0 mm 2 mps 752 mmHg 87%
    01:00 +9°C° 0 mm 2 mps 752 mmHg 88%
    02:00 +8°C° 0 mm 2 mps 752 mmHg 89%
    03:00 +9°C° 0 mm 2 mps 752 mmHg 89%
    04:00 +9°C° 0 mm 2 mps 752 mmHg 89%
    05:00 +9°C° 0 mm 2 mps 752 mmHg 89%
    06:00 +12°C° 0.1 mm 2 mps 752 mmHg 85%
    07:00 +12°C° 0.1 mm 3 mps 752 mmHg 82%
    08:00 +14°C° 0.1 mm 3 mps 752 mmHg 78%
    09:00 +14°C° 0.4 mm 3 mps 751 mmHg 76%
    10:00 +16°C° 0.4 mm 3 mps 751 mmHg 74%
    11:00 +16°C° 0.4 mm 3 mps 751 mmHg 73%
    12:00 +17°C° 0.2 mm 3 mps 751 mmHg 68%
    13:00 +17°C° 0.2 mm 3 mps 751 mmHg 64%
    14:00 +18°C° 0.2 mm 3 mps 750 mmHg 59%
    15:00 +18°C° 0.2 mm 2 mps 750 mmHg 62%
    16:00 +18°C° 0.2 mm 2 mps 750 mmHg 65%
    17:00 +17°C° 0.2 mm 2 mps 750 mmHg 68%
    18:00 +16°C° 0.2 mm 2 mps 749 mmHg 73%
    19:00 +15°C° 0.2 mm 2 mps 749 mmHg 77%
    20:00 +14°C° 0.2 mm 1 mps 749 mmHg 82%
    21:00 +13°C° 0 mm 1 mps 749 mmHg 83%
    22:00 +12°C° 0 mm 1 mps 750 mmHg 84%
    23:00 +11°C° 0 mm 1 mps 750 mmHg 85%

    3 June, Wednesday

    Time Temperature Precipitation Wind Pressure Humidity
    00:00 +10°C° 0 mm 1 mps 750 mmHg 85%
    01:00 +10°C° 0 mm 1 mps 749 mmHg 85%
    02:00 +9°C° 0 mm 1 mps 749 mmHg 86%
    03:00 +8°C° 0 mm 0 mps 749 mmHg 85%
    04:00 +8°C° 0 mm 0 mps 749 mmHg 85%
    05:00 +8°C° 0 mm 0 mps 749 mmHg 84%
    06:00 +10°C° 0 mm 0 mps 749 mmHg 78%
    07:00 +12°C° 0 mm 0 mps 749 mmHg 73%
    08:00 +14°C° 0 mm 0 mps 749 mmHg 67%
    09:00 +15°C° 0 mm 0 mps 749 mmHg 61%
    10:00 +19°C° 0 mm 1 mps 749 mmHg 55%
    11:00 +20°C° 0 mm 1 mps 749 mmHg 49%
    12:00 +20°C° 0 mm 1 mps 748 mmHg 49%
    13:00 +20°C° 0 mm 1 mps 748 mmHg 49%
    14:00 +20°C° 0 mm 1 mps 748 mmHg 50%
    15:00 +20°C° 0 mm 1 mps 747 mmHg 52%
    16:00 +20°C° 0 mm 1 mps 747 mmHg 53%
    17:00 +19°C° 0 mm 2 mps 747 mmHg 55%
    18:00 +18°C° 0 mm 2 mps 747 mmHg 62%
    19:00 +17°C° 0 mm 2 mps 746 mmHg 69%
    20:00 +15°C° 0 mm 2 mps 746 mmHg 76%
    21:00 +14°C° 0 mm 2 mps 746 mmHg 76%
    22:00 +13°C° 0 mm 2 mps 746 mmHg 76%
    23:00 +12°C° 0 mm 2 mps 746 mmHg 76%
    Show more